,,Stat6,,Stat2,,Stat8,,Stat9,,Stat10,,Wind1,,Wind1,
time,status,PA1M_AVG,status,PR1M_SUM,status,RH1M_AVG,status,SR1M_AVG,status,TA1M_AVG,status,W1dAve1m,status,W1sAve1m,
2008-05-20, 00:00:00,VALID,918.496,VALID,0,VALID,99.3734,VALID,-0.101885,VALID,18.1003,VALID,137,VALID,0.707667,
2008-05-20, 00:01:00,VALID,918.501,VALID,0,VALID,99.6035,VALID,-0.0849042,VALID,18.0522,VALID,133,VALID,0.930367,
2008-05-20, 00:02:00,VALID,918.49,VALID,0,VALID,99.8372,VALID,-0.101885,VALID,18.013,VALID,133,VALID,0.985647,
2008-05-20, 00:03:00,VALID,918.489,VALID,0,VALID,100,VALID,-0.101885,VALID,18.0195,VALID,133,VALID,0.967115,
2008-05-20, 00:04:00,VALID,918.469,VALID,0,VALID,100,VALID,-0.0849042,VALID,18.016,VALID,144,VALID,1.15589,
2008-05-20, 00:05:00,VALID,918.46,VALID,0,VALID,100,VALID,-0.0849042,VALID,18.0424,VALID,141,VALID,1.25426,
2008-05-20, 00:06:00,VALID,918.452,VALID,0,VALID,100,VALID,-0.101885,VALID,18.0649,VALID,145,VALID,1.31414,
2008-05-20, 00:07:00,VALID,918.444,VALID,0,VALID,100,VALID,-0.101885,VALID,18.1003,VALID,145,VALID,0.954687,
2008-05-20, 00:08:00,VALID,918.428,VALID,0,VALID,100,VALID,-0.0339617,VALID,18.1543,VALID,145,VALID,0.868712,
2008-05-20, 00:09:00,VALID,918.418,VALID,0,VALID,100,VALID,0,VALID,18.1935,VALID,147,VALID,0.836664,
2008-05-20, 00:10:00,VALID,918.407,VALID,0,VALID,100,VALID,-0.0169808,VALID,18.1768,VALID,163,VALID,0.855374,
2008-05-20, 00:11:00,VALID,918.407,VALID,0,VALID,100,VALID,-0.0339617,VALID,18.1939,VALID,147,VALID,0.840376,
2008-05-20, 00:12:00,VALID,918.412,VALID,0,VALID,100,VALID,0,VALID,18.1865,VALID,153,VALID,0.89741,
2008-05-20, 00:13:00,VALID,918.404,VALID,0,VALID,100,VALID,0.0339617,VALID,18.1798,VALID,162,VALID,1.00272,
2008-05-20, 00:14:00,VALID,918.381,VALID,0,VALID,100,VALID,0,VALID,18.1738,VALID,163,VALID,1.13602,
2008-05-20, 00:15:00,VALID,918.359,VALID,0,VALID,100,VALID,0.0339617,VALID,18.1768,VALID,157,VALID,1.23555,
2008-05-20, 00:16:00,VALID,918.337,VALID,0,VALID,100,VALID,0,VALID,18.1733,VALID,154,VALID,0.923651,
2008-05-20, 00:17:00,VALID,918.328,VALID,0,VALID,100,VALID,0,VALID,18.1805,VALID,154,VALID,0.788154,
2008-05-20, 00:18:00,VALID,918.317,VALID,0,VALID,100,VALID,0,VALID,18.1837,VALID,154,VALID,0.524926,
2008-05-20, 00:19:00,VALID,918.308,VALID,0,VALID,100,VALID,0,VALID,18.1712,VALID,154,VALID,0.0161966,
2008-05-20, 00:20:00,VALID,918.3,VALID,0,VALID,100,VALID,0,VALID,18.1226,VALID,154,VALID,0,
2008-05-20, 00:21:00,VALID,918.282,VALID,0,VALID,100,VALID,-0.0169808,VALID,17.9797,VALID,154,VALID,0,
2008-05-20, 00:22:00,VALID,918.268,VALID,0,VALID,99.9641,VALID,0,VALID,17.7907,VALID,154,VALID,0,
2008-05-20, 00:23:00,VALID,918.26,VALID,0,VALID,100,VALID,-0.0679233,VALID,17.7626,VALID,154,VALID,0.0762195,
2008-05-20, 00:24:00,VALID,918.244,VALID,0,VALID,100,VALID,-0.0679233,VALID,17.7788,VALID,154,VALID,0,
2008-05-20, 00:25:00,VALID,918.239,VALID,0,VALID,100,VALID,-0.0849042,VALID,17.7795,VALID,154,VALID,0,
2008-05-20, 00:26:00,VALID,918.238,VALID,0,VALID,100,VALID,-0.0849042,VALID,17.7629,VALID,154,VALID,0,
2008-05-20, 00:27:00,VALID,918.236,VALID,0,VALID,100,VALID,-0.101885,VALID,17.7793,VALID,154,VALID,0,
2008-05-20, 00:28:00,VALID,918.218,VALID,0,VALID,100,VALID,-0.0849042,VALID,17.799,VALID,154,VALID,0,
2008-05-20, 00:29:00,VALID,918.203,VALID,0,VALID,100,VALID,-0.0679233,VALID,17.8083,VALID,154,VALID,0,
2008-05-20, 00:30:00,VALID,918.211,VALID,0,VALID,100,VALID,-0.0509425,VALID,17.7951,VALID,154,VALID,0,
2008-05-20, 00:31:00,VALID,918.184,VALID,0,VALID,100,VALID,-0.0339617,VALID,17.7825,VALID,154,VALID,0,
2008-05-20, 00:32:00,VALID,918.184,VALID,0,VALID,100,VALID,-0.101885,VALID,17.7793,VALID,154,VALID,0,
2008-05-20, 00:33:00,VALID,918.16,VALID,0,VALID,100,VALID,-0.0679233,VALID,17.8798,VALID,154,VALID,0,
2008-05-20, 00:34:00,VALID,918.129,VALID,0,VALID,100,VALID,-0.101885,VALID,17.9509,VALID,154,VALID,0,
2008-05-20, 00:35:00,VALID,918.107,VALID,0,VALID,100,VALID,-0.0679233,VALID,18.0061,VALID,154,VALID,0,
2008-05-20, 00:36:00,VALID,918.094,VALID,0,VALID,100,VALID,-0.0509425,VALID,18.0807,VALID,154,VALID,0,
2008-05-20, 00:37:00,VALID,918.082,VALID,0,VALID,100,VALID,-0.0679233,VALID,18.1096,VALID,154,VALID,0,
2008-05-20, 00:38:00,VALID,918.072,VALID,0,VALID,100,VALID,-0.101885,VALID,18.1196,VALID,154,VALID,0,
2008-05-20, 00:39:00,VALID,918.068,VALID,0,VALID,100,VALID,-0.0509425,VALID,18.1358,VALID,152,VALID,0.0944767,
2008-05-20, 00:40:00,VALID,918.076,VALID,0,VALID,100,VALID,-0.0849042,VALID,18.142,VALID,146,VALID,0.491629,
2008-05-20, 00:41:00,VALID,918.101,VALID,0,VALID,100,VALID,-0.0849042,VALID,18.0871,VALID,146,VALID,0.363467,
2008-05-20, 00:42:00,VALID,918.109,VALID,0,VALID,100,VALID,-0.0339617,VALID,17.9343,VALID,146,VALID,0.273438,
2008-05-20, 00:43:00,VALID,918.118,VALID,0,VALID,100,VALID,-0.0509425,VALID,17.8439,VALID,146,VALID,0.245046,
2008-05-20, 00:44:00,VALID,918.114,VALID,0,VALID,99.9914,VALID,-0.101885,VALID,17.727,VALID,145,VALID,0.00236192,
2008-05-20, 00:45:00,VALID,918.115,VALID,0,VALID,99.7777,VALID,-0.0509425,VALID,17.5389,VALID,123,VALID,0,
2008-05-20, 00:46:00,VALID,918.1,VALID,0,VALID,99.9914,VALID,-0.0679233,VALID,17.5227,VALID,84,VALID,0,
2008-05-20, 00:47:00,VALID,918.09,VALID,0,VALID,100,VALID,-0.0849042,VALID,17.5586,VALID,84,VALID,0.267045,
2008-05-20, 00:48:00,VALID,918.099,VALID,0,VALID,100,VALID,-0.0679233,VALID,17.6654,VALID,84,VALID,0.735709,
2008-05-20, 00:49:00,VALID,918.086,VALID,0,VALID,100,VALID,-0.0509425,VALID,17.6297,VALID,84,VALID,0.406597,
2008-05-20, 00:50:00,VALID,918.103,VALID,0,VALID,100,VALID,-0.0679233,VALID,17.5813,VALID,84,VALID,0.310764,
2008-05-20, 00:51:00,VALID,918.092,VALID,0,VALID,100,VALID,-0.101885,VALID,17.6037,VALID,84,VALID,0.0800347,
2008-05-20, 00:52:00,VALID,918.09,VALID,0,VALID,100,VALID,-0.0679233,VALID,17.607,VALID,84,VALID,0,
2008-05-20, 00:53:00,VALID,918.095,VALID,0,VALID,100,VALID,-0.0509425,VALID,17.62,VALID,84,VALID,0,
2008-05-20, 00:54:00,VALID,918.097,VALID,0,VALID,100,VALID,-0.0339617,VALID,17.6552,VALID,84,VALID,0,
2008-05-20, 00:55:00,VALID,918.082,VALID,0,VALID,100,VALID,-0.0339617,VALID,17.73,VALID,84,VALID,0,
2008-05-20, 00:56:00,VALID,918.074,VALID,0,VALID,100,VALID,-0.0509425,VALID,17.8078,VALID,84,VALID,0,
2008-05-20, 00:57:00,VALID,918.08,VALID,0,VALID,100,VALID,-0.0509425,VALID,17.8599,VALID,84,VALID,0,
2008-05-20, 00:58:00,VALID,918.055,VALID,0,VALID,100,VALID,-0.0849042,VALID,17.8115,VALID,84,VALID,0,
2008-05-20, 00:59:00,VALID,918.037,VALID,0,VALID,100,VALID,-0.0509425,VALID,17.7395,VALID,84,VALID,0,
2008-05-20, 01:00:00,VALID,918.024,VALID,0,VALID,100,VALID,-0.101885,VALID,17.7015,VALID,84,VALID,0,
2008-05-20, 01:01:00,VALID,918.012,VALID,0,VALID,100,VALID,-0.101885,VALID,17.6526,VALID,84,VALID,0,
2008-05-20, 01:02:00,VALID,918.006,VALID,0,VALID,100,VALID,-0.0679233,VALID,17.5878,VALID,84,VALID,0,
2008-05-20, 01:03:00,VALID,918.009,VALID,0,VALID,100,VALID,-0.0849042,VALID,17.5261,VALID,84,VALID,0,
2008-05-20, 01:04:00,VALID,918.002,VALID,0,VALID,100,VALID,-0.118866,VALID,17.4548,VALID,84,VALID,0,
2008-05-20, 01:05:00,VALID,918.013,VALID,0,VALID,100,VALID,-0.101885,VALID,17.3742,VALID,84,VALID,0,
2008-05-20, 01:06:00,VALID,918.03,VALID,0,VALID,100,VALID,-0.101885,VALID,17.3446,VALID,84,VALID,0,
2008-05-20, 01:07:00,VALID,918.052,VALID,0,VALID,100,VALID,-0.0849042,VALID,17.3802,VALID,84,VALID,0,
2008-05-20, 01:08:00,VALID,918.067,VALID,0,VALID,100,VALID,-0.0339617,VALID,17.4673,VALID,84,VALID,0,
2008-05-20, 01:09:00,VALID,918.066,VALID,0,VALID,100,VALID,0,VALID,17.5086,VALID,84,VALID,0,
2008-05-20, 01:10:00,VALID,918.034,VALID,0,VALID,100,VALID,0.0169808,VALID,17.5477,VALID,84,VALID,0,
2008-05-20, 01:11:00,VALID,918.001,VALID,0,VALID,100,VALID,0,VALID,17.5959,VALID,84,VALID,0,
2008-05-20, 01:12:00,VALID,917.969,VALID,0,VALID,100,VALID,0,VALID,17.6742,VALID,84,VALID,0,
2008-05-20, 01:13:00,VALID,917.926,VALID,0,VALID,100,VALID,0.0169808,VALID,17.7617,VALID,84,VALID,0,
2008-05-20, 01:14:00,VALID,917.895,VALID,0,VALID,100,VALID,0,VALID,17.7974,VALID,84,VALID,0,
2008-05-20, 01:15:00,VALID,917.86,VALID,0,VALID,100,VALID,0,VALID,17.7807,VALID,84,VALID,0,
2008-05-20, 01:16:00,VALID,917.829,VALID,0,VALID,100,VALID,0,VALID,17.7712,VALID,84,VALID,0,
2008-05-20, 01:17:00,VALID,917.818,VALID,0,VALID,100,VALID,0.0339617,VALID,17.7874,VALID,84,VALID,0,
2008-05-20, 01:18:00,VALID,917.81,VALID,0,VALID,100,VALID,0.0339617,VALID,17.8199,VALID,84,VALID,0,
2008-05-20, 01:19:00,VALID,917.791,VALID,0,VALID,100,VALID,0.0339617,VALID,17.8586,VALID,84,VALID,0,
2008-05-20, 01:20:00,VALID,917.786,VALID,0,VALID,100,VALID,0.0679233,VALID,17.9104,VALID,84,VALID,0,
2008-05-20, 01:21:00,VALID,917.767,VALID,0,VALID,100,VALID,0.0169808,VALID,17.9788,VALID,84,VALID,0,
2008-05-20, 01:22:00,VALID,917.766,VALID,0,VALID,100,VALID,0.0169808,VALID,18.0269,VALID,84,VALID,0,
2008-05-20, 01:23:00,VALID,917.753,VALID,0,VALID,100,VALID,0,VALID,17.9885,VALID,84,VALID,0,
2008-05-20, 01:24:00,VALID,917.722,VALID,0,VALID,100,VALID,0.0169808,VALID,17.9755,VALID,84,VALID,0,
2008-05-20, 01:25:00,VALID,917.707,VALID,0,VALID,99.7759,VALID,0.0169808,VALID,17.8782,VALID,84,VALID,0,
2008-05-20, 01:26:00,VALID,917.687,VALID,0,VALID,99.3924,VALID,0.0339617,VALID,17.7094,VALID,84,VALID,0,
2008-05-20, 01:27:00,VALID,917.679,VALID,0,VALID,99.3161,VALID,0,VALID,17.6026,VALID,84,VALID,0,
2008-05-20, 01:28:00,VALID,917.686,VALID,0,VALID,99.3212,VALID,0,VALID,17.5021,VALID,84,VALID,0,
2008-05-20, 01:29:00,VALID,917.691,VALID,0,VALID,99.5031,VALID,0,VALID,17.4502,VALID,84,VALID,0,
2008-05-20, 01:30:00,VALID,917.678,VALID,0,VALID,99.3238,VALID,0,VALID,17.3662,VALID,84,VALID,0.0752841,
2008-05-20, 01:31:00,VALID,917.67,VALID,0,VALID,99.5883,VALID,0.0169808,VALID,17.3046,VALID,85,VALID,0,
2008-05-20, 01:32:00,VALID,917.64,VALID,0,VALID,99.7892,VALID,0,VALID,17.2979,VALID,99,VALID,0.388338,
2008-05-20, 01:33:00,VALID,917.614,VALID,0,VALID,99.821,VALID,0,VALID,17.2884,VALID,121,VALID,0.606357,
2008-05-20, 01:34:00,VALID,917.597,VALID,0,VALID,99.8985,VALID,-0.0169808,VALID,17.2689,VALID,133,VALID,0.630327,
2008-05-20, 01:35:00,VALID,917.587,VALID,0,VALID,99.955,VALID,0,VALID,17.2495,VALID,153,VALID,0.983994,
2008-05-20, 01:36:00,VALID,917.58,VALID,0,VALID,100,VALID,0.0169808,VALID,17.2752,VALID,153,VALID,0.875,
2008-05-20, 01:37:00,VALID,917.591,VALID,0,VALID,100,VALID,0,VALID,17.3305,VALID,152,VALID,0.795422,
2008-05-20, 01:38:00,VALID,917.593,VALID,0,VALID,100,VALID,-0.0679233,VALID,17.3055,VALID,123,VALID,0.490699,
2008-05-20, 01:39:00,VALID,917.6,VALID,0,VALID,100,VALID,-0.0849042,VALID,17.2696,VALID,130,VALID,0.551847,
2008-05-20, 01:40:00,VALID,917.598,VALID,0,VALID,100,VALID,-0.0849042,VALID,17.2698,VALID,132,VALID,0.0282738,
2008-05-20, 01:41:00,VALID,917.604,VALID,0,VALID,100,VALID,-0.0679233,VALID,17.2015,VALID,132,VALID,0.114281,
2008-05-20, 01:42:00,VALID,917.607,VALID,0,VALID,100,VALID,-0.0849042,VALID,17.1688,VALID,132,VALID,0.201791,
2008-05-20, 01:43:00,VALID,917.625,VALID,0,VALID,100,VALID,-0.101885,VALID,17.1269,VALID,132,VALID,0.106286,
2008-05-20, 01:44:00,VALID,917.639,VALID,0,VALID,100,VALID,-0.0679233,VALID,17.088,VALID,132,VALID,0.345846,
2008-05-20, 01:45:00,VALID,917.649,VALID,0,VALID,100,VALID,-0.0679233,VALID,17.0783,VALID,132,VALID,0.26669,
2008-05-20, 01:46:00,VALID,917.646,VALID,0,VALID,100,VALID,-0.0679233,VALID,17.023,VALID,132,VALID,0.386161,
2008-05-20, 01:47:00,VALID,917.641,VALID,0,VALID,100,VALID,-0.0849042,VALID,17.0197,VALID,134,VALID,0.711301,
2008-05-20, 01:48:00,VALID,917.636,VALID,0,VALID,100,VALID,-0.0849042,VALID,17.0655,VALID,149,VALID,0.909884,
2008-05-20, 01:49:00,VALID,917.633,VALID,0,VALID,100,VALID,-0.101885,VALID,17.1209,VALID,155,VALID,1.04002,
2008-05-20, 01:50:00,VALID,917.629,VALID,0,VALID,100,VALID,-0.0679233,VALID,17.1753,VALID,167,VALID,0.929688,
2008-05-20, 01:51:00,VALID,917.636,VALID,0,VALID,100,VALID,-0.0509425,VALID,17.2307,VALID,169,VALID,0.661328,
2008-05-20, 01:52:00,VALID,917.628,VALID,0,VALID,100,VALID,-0.0509425,VALID,17.2467,VALID,169,VALID,0.686942,
2008-05-20, 01:53:00,VALID,917.638,VALID,0,VALID,100,VALID,-0.0849042,VALID,17.2438,VALID,169,VALID,0.0234375,
2008-05-20, 01:54:00,VALID,917.646,VALID,0,VALID,100,VALID,-0.0679233,VALID,17.1401,VALID,169,VALID,0,
2008-05-20, 01:55:00,VALID,917.638,VALID,0,VALID,100,VALID,-0.0509425,VALID,17.2149,VALID,169,VALID,0,
2008-05-20, 01:56:00,VALID,917.655,VALID,0,VALID,100,VALID,-0.0339617,VALID,17.2367,VALID,169,VALID,0,
2008-05-20, 01:57:00,VALID,917.65,VALID,0,VALID,100,VALID,-0.0509425,VALID,17.305,VALID,169,VALID,0,
2008-05-20, 01:58:00,VALID,917.635,VALID,0,VALID,100,VALID,-0.101885,VALID,17.3865,VALID,169,VALID,0,
2008-05-20, 01:59:00,VALID,917.638,VALID,0,VALID,100,VALID,-0.0849042,VALID,17.4088,VALID,169,VALID,0,
2008-05-20, 02:00:00,VALID,917.618,VALID,0,VALID,100,VALID,-0.0849042,VALID,17.399,VALID,169,VALID,0,
2008-05-20, 02:01:00,VALID,917.609,VALID,0,VALID,100,VALID,-0.0169808,VALID,17.4507,VALID,169,VALID,0.137576,
2008-05-20, 02:02:00,VALID,917.608,VALID,0,VALID,100,VALID,-0.0679233,VALID,17.441,VALID,169,VALID,0.0078125,
2008-05-20, 02:03:00,VALID,917.625,VALID,0,VALID,100,VALID,-0.0679233,VALID,17.4872,VALID,169,VALID,0,
2008-05-20, 02:04:00,VALID,917.638,VALID,0,VALID,100,VALID,-0.0679233,VALID,17.4444,VALID,169,VALID,0,
2008-05-20, 02:05:00,VALID,917.652,VALID,0,VALID,100,VALID,-0.0849042,VALID,17.3768,VALID,169,VALID,0,
2008-05-20, 02:06:00,VALID,917.66,VALID,0,VALID,100,VALID,-0.0849042,VALID,17.4025,VALID,169,VALID,0,
2008-05-20, 02:07:00,VALID,917.66,VALID,0,VALID,100,VALID,-0.0509425,VALID,17.5452,VALID,169,VALID,0,
2008-05-20, 02:08:00,VALID,917.668,VALID,0,VALID,100,VALID,-0.0509425,VALID,17.4896,VALID,169,VALID,0,
2008-05-20, 02:09:00,VALID,917.666,VALID,0,VALID,100,VALID,-0.0339617,VALID,17.3954,VALID,169,VALID,0,
2008-05-20, 02:10:00,VALID,917.661,VALID,0,VALID,100,VALID,-0.0679233,VALID,17.1851,VALID,163,VALID,0,
2008-05-20, 02:11:00,VALID,917.666,VALID,0,VALID,100,VALID,-0.0169808,VALID,17.0846,VALID,140,VALID,0.463844,
2008-05-20, 02:12:00,VALID,917.686,VALID,0,VALID,100,VALID,-0.0169808,VALID,17.0452,VALID,140,VALID,0.209223,
2008-05-20, 02:13:00,VALID,917.677,VALID,0,VALID,100,VALID,-0.0169808,VALID,16.9972,VALID,140,VALID,0,
2008-05-20, 02:14:00,VALID,917.684,VALID,0,VALID,100,VALID,-0.0679233,VALID,16.9903,VALID,140,VALID,0,
2008-05-20, 02:15:00,VALID,917.689,VALID,0,VALID,100,VALID,-0.0679233,VALID,17.039,VALID,140,VALID,0,
2008-05-20, 02:16:00,VALID,917.688,VALID,0,VALID,100,VALID,-0.0169808,VALID,17.0913,VALID,140,VALID,0,
2008-05-20, 02:17:00,VALID,917.701,VALID,0,VALID,100,VALID,-0.0339617,VALID,17.1777,VALID,140,VALID,0,
2008-05-20, 02:18:00,VALID,917.717,VALID,0,VALID,100,VALID,0,VALID,17.2881,VALID,140,VALID,0,
2008-05-20, 02:19:00,VALID,917.718,VALID,0,VALID,100,VALID,-0.0339617,VALID,17.3567,VALID,140,VALID,0,
2008-05-20, 02:20:00,VALID,917.734,VALID,0,VALID,100,VALID,-0.0679233,VALID,17.4116,VALID,140,VALID,0,
2008-05-20, 02:21:00,VALID,917.756,VALID,0,VALID,100,VALID,-0.0169808,VALID,17.3856,VALID,140,VALID,0,
2008-05-20, 02:22:00,VALID,917.768,VALID,0,VALID,100,VALID,-0.0339617,VALID,17.3564,VALID,140,VALID,0,
2008-05-20, 02:23:00,VALID,917.781,VALID,0,VALID,100,VALID,-0.0339617,VALID,17.3238,VALID,140,VALID,0,
2008-05-20, 02:24:00,VALID,917.773,VALID,0,VALID,100,VALID,-0.0169808,VALID,17.2948,VALID,140,VALID,0,
2008-05-20, 02:25:00,VALID,917.756,VALID,0,VALID,100,VALID,-0.0169808,VALID,17.2851,VALID,140,VALID,0,
2008-05-20, 02:26:00,VALID,917.742,VALID,0,VALID,100,VALID,-0.0339617,VALID,17.3245,VALID,140,VALID,0,
2008-05-20, 02:27:00,VALID,917.731,VALID,0,VALID,100,VALID,-0.0339617,VALID,17.3504,VALID,140,VALID,0,
2008-05-20, 02:28:00,VALID,917.722,VALID,0,VALID,100,VALID,-0.0169808,VALID,17.4081,VALID,140,VALID,0,
2008-05-20, 02:29:00,VALID,917.717,VALID,0,VALID,100,VALID,0,VALID,17.3919,VALID,140,VALID,0,
2008-05-20, 02:30:00,VALID,917.709,VALID,0,VALID,100,VALID,-0.0339617,VALID,17.4083,VALID,126,VALID,0.17081,
2008-05-20, 02:31:00,VALID,917.706,VALID,0,VALID,100,VALID,-0.0169808,VALID,17.5285,VALID,101,VALID,0.141016,
2008-05-20, 02:32:00,VALID,917.691,VALID,0,VALID,100,VALID,-0.0169808,VALID,17.5836,VALID,102,VALID,0,
2008-05-20, 02:33:00,VALID,917.659,VALID,0,VALID,100,VALID,-0.0339617,VALID,17.6418,VALID,102,VALID,0,
2008-05-20, 02:34:00,VALID,917.646,VALID,0,VALID,100,VALID,-0.0169808,VALID,17.6804,VALID,102,VALID,0,
2008-05-20, 02:35:00,VALID,917.627,VALID,0,VALID,100,VALID,-0.0169808,VALID,17.7198,VALID,102,VALID,0,
2008-05-20, 02:36:00,VALID,917.618,VALID,0,VALID,100,VALID,0,VALID,17.7747,VALID,102,VALID,0,
2008-05-20, 02:37:00,VALID,917.617,VALID,0,VALID,100,VALID,-0.0169808,VALID,17.7914,VALID,101,VALID,0,
2008-05-20, 02:38:00,VALID,917.618,VALID,0,VALID,100,VALID,-0.0169808,VALID,17.7777,VALID,69,VALID,0.105097,
2008-05-20, 02:39:00,VALID,917.612,VALID,0,VALID,100,VALID,0,VALID,17.6545,VALID,21,VALID,0.395898,
2008-05-20, 02:40:00,VALID,917.586,VALID,0,VALID,100,VALID,-0.0169808,VALID,17.875,VALID,25,VALID,0.775799,
2008-05-20, 02:41:00,VALID,917.582,VALID,0,VALID,100,VALID,-0.0169808,VALID,18.3746,VALID,23,VALID,0.679306,
2008-05-20, 02:42:00,VALID,917.568,VALID,0,VALID,100,VALID,-0.0169808,VALID,18.5495,VALID,25,VALID,0.588889,
2008-05-20, 02:43:00,VALID,917.553,VALID,0,VALID,100,VALID,-0.0169808,VALID,18.7474,VALID,359,VALID,0.576882,
2008-05-20, 02:44:00,VALID,917.544,VALID,0,VALID,100,VALID,-0.0169808,VALID,18.7835,VALID,7,VALID,0,
2008-05-20, 02:45:00,VALID,917.505,VALID,0,VALID,100,VALID,-0.0169808,VALID,18.6181,VALID,12,VALID,0,
2008-05-20, 02:46:00,VALID,917.488,VALID,0,VALID,100,VALID,-0.0339617,VALID,18.6343,VALID,13,VALID,0,
2008-05-20, 02:47:00,VALID,917.5,VALID,0,VALID,100,VALID,-0.0169808,VALID,18.6406,VALID,13,VALID,0,
2008-05-20, 02:48:00,VALID,917.518,VALID,0,VALID,100,VALID,-0.0679233,VALID,18.6146,VALID,13,VALID,0,
2008-05-20, 02:49:00,VALID,917.527,VALID,0,VALID,100,VALID,-0.0339617,VALID,18.563,VALID,11,VALID,0,
2008-05-20, 02:50:00,VALID,917.535,VALID,0,VALID,100,VALID,-0.0339617,VALID,18.5342,VALID,9,VALID,0,
2008-05-20, 02:51:00,VALID,917.529,VALID,0,VALID,100,VALID,-0.0339617,VALID,18.5505,VALID,29,VALID,0,
2008-05-20, 02:52:00,VALID,917.504,VALID,0,VALID,100,VALID,-0.0169808,VALID,18.5822,VALID,29,VALID,0,
2008-05-20, 02:53:00,VALID,917.479,VALID,0,VALID,100,VALID,-0.0169808,VALID,18.5829,VALID,29,VALID,0,
2008-05-20, 02:54:00,VALID,917.466,VALID,0,VALID,100,VALID,-0.0339617,VALID,18.6054,VALID,29,VALID,0,
2008-05-20, 02:55:00,VALID,917.456,VALID,0,VALID,100,VALID,-0.0169808,VALID,18.6153,VALID,29,VALID,0,
2008-05-20, 02:56:00,VALID,917.446,VALID,0,VALID,100,VALID,-0.0509425,VALID,18.6408,VALID,29,VALID,0,
2008-05-20, 02:57:00,VALID,917.457,VALID,0,VALID,100,VALID,-0.0339617,VALID,18.6345,VALID,29,VALID,0,
2008-05-20, 02:58:00,VALID,917.455,VALID,0,VALID,100,VALID,-0.0339617,VALID,18.638,VALID,29,VALID,0,
2008-05-20, 02:59:00,VALID,917.46,VALID,0,VALID,100,VALID,-0.0339617,VALID,18.6769,VALID,29,VALID,0,
2008-05-20, 03:00:00,VALID,917.468,VALID,0,VALID,100,VALID,-0.0509425,VALID,18.7224,VALID,29,VALID,0,
2008-05-20, 03:01:00,VALID,917.499,VALID,0,VALID,100,VALID,-0.0339617,VALID,18.7418,VALID,29,VALID,0,
2008-05-20, 03:02:00,VALID,917.508,VALID,0,VALID,100,VALID,-0.0849042,VALID,18.6832,VALID,29,VALID,0,
2008-05-20, 03:03:00,VALID,917.505,VALID,0,VALID,100,VALID,-0.0339617,VALID,18.6897,VALID,29,VALID,0,
2008-05-20, 03:04:00,VALID,917.466,VALID,0,VALID,100,VALID,-0.0169808,VALID,18.7446,VALID,29,VALID,0,
2008-05-20, 03:05:00,VALID,917.444,VALID,0,VALID,100,VALID,-0.0169808,VALID,18.7701,VALID,29,VALID,0,
2008-05-20, 03:06:00,VALID,917.415,VALID,0,VALID,100,VALID,0,VALID,18.8878,VALID,29,VALID,0,
2008-05-20, 03:07:00,VALID,917.404,VALID,0,VALID,100,VALID,-0.0509425,VALID,18.9619,VALID,29,VALID,0,
2008-05-20, 03:08:00,VALID,917.423,VALID,0,VALID,100,VALID,0.0339617,VALID,18.9674,VALID,29,VALID,0,
2008-05-20, 03:09:00,VALID,917.438,VALID,0,VALID,100,VALID,0.0679233,VALID,18.931,VALID,360,VALID,0,
2008-05-20, 03:10:00,VALID,917.445,VALID,0,VALID,100,VALID,0.0509425,VALID,18.8367,VALID,326,VALID,0,
2008-05-20, 03:11:00,VALID,917.436,VALID,0,VALID,100,VALID,0.101885,VALID,18.7689,VALID,326,VALID,0,
2008-05-20, 03:12:00,VALID,917.451,VALID,0,VALID,100,VALID,0.118866,VALID,18.7916,VALID,326,VALID,0,
2008-05-20, 03:13:00,VALID,917.455,VALID,0,VALID,100,VALID,0.0849042,VALID,18.8076,VALID,326,VALID,0,
2008-05-20, 03:14:00,VALID,917.443,VALID,0,VALID,100,VALID,0.101885,VALID,18.824,VALID,326,VALID,0,
2008-05-20, 03:15:00,VALID,917.437,VALID,0,VALID,100,VALID,0.0679233,VALID,18.7946,VALID,326,VALID,0,
2008-05-20, 03:16:00,VALID,917.432,VALID,0,VALID,100,VALID,0.118866,VALID,18.6843,VALID,326,VALID,0,
2008-05-20, 03:17:00,VALID,917.425,VALID,0,VALID,100,VALID,0.0849042,VALID,18.6693,VALID,329,VALID,0,
2008-05-20, 03:18:00,VALID,917.422,VALID,0,VALID,100,VALID,0.0509425,VALID,18.679,VALID,338,VALID,0,
2008-05-20, 03:19:00,VALID,917.431,VALID,0,VALID,100,VALID,0.0339617,VALID,18.6788,VALID,338,VALID,0,
2008-05-20, 03:20:00,VALID,917.429,VALID,0,VALID,100,VALID,0.0679233,VALID,18.6558,INVALID,360,VALID,0,
2008-05-20, 03:21:00,VALID,917.424,VALID,0,VALID,100,VALID,0.0339617,VALID,18.6009,INVALID,360,VALID,0,
2008-05-20, 03:22:00,VALID,917.409,VALID,0,VALID,100,VALID,0.0679233,VALID,18.565,INVALID,360,VALID,0,
2008-05-20, 03:23:00,VALID,917.393,VALID,0,VALID,100,VALID,-0.0339617,VALID,18.5597,VALID,338,VALID,0,
2008-05-20, 03:24:00,VALID,917.401,VALID,0,VALID,100,VALID,-0.0169808,VALID,18.5569,INVALID,360,VALID,0,
2008-05-20, 03:25:00,VALID,917.394,VALID,0,VALID,100,VALID,-0.0339617,VALID,18.524,INVALID,360,VALID,0,
2008-05-20, 03:26:00,VALID,917.396,VALID,0,VALID,100,VALID,-0.0169808,VALID,18.5145,INVALID,360,VALID,0,
2008-05-20, 03:27:00,VALID,917.392,VALID,0,VALID,100,VALID,-0.0509425,VALID,18.4981,INVALID,360,VALID,0,
2008-05-20, 03:28:00,VALID,917.387,VALID,0,VALID,100,VALID,-0.0509425,VALID,18.4916,INVALID,360,VALID,0,
2008-05-20, 03:29:00,VALID,917.376,VALID,0,VALID,100,VALID,-0.0339617,VALID,18.4918,INVALID,360,VALID,0,
2008-05-20, 03:30:00,VALID,917.372,VALID,0,VALID,100,VALID,-0.0849042,VALID,18.4821,INVALID,360,VALID,0,
2008-05-20, 03:31:01,VALID,917.358,VALID,0,VALID,100,VALID,-0.0509425,VALID,18.4763,INVALID,360,VALID,0,
2008-05-20, 03:32:00,VALID,917.36,VALID,0,VALID,100,VALID,-0.0679233,VALID,18.4756,INVALID,360,VALID,0,
2008-05-20, 03:33:00,VALID,917.371,VALID,0,VALID,100,VALID,-0.0679233,VALID,18.4661,INVALID,360,VALID,0,
2008-05-20, 03:34:00,VALID,917.359,VALID,0,VALID,100,VALID,-0.0679233,VALID,18.4789,VALID,338,VALID,0,
2008-05-20, 03:35:00,VALID,917.349,VALID,0,VALID,100,VALID,-0.0849042,VALID,18.4888,INVALID,360,VALID,0,
2008-05-20, 03:36:00,VALID,917.352,VALID,0,VALID,100,VALID,-0.0509425,VALID,18.4726,INVALID,360,VALID,0,
2008-05-20, 03:37:01,VALID,917.343,VALID,0,VALID,100,VALID,-0.0509425,VALID,18.5083,INVALID,360,VALID,0,
2008-05-20, 03:38:00,VALID,917.337,VALID,0,VALID,100,VALID,-0.0339617,VALID,18.4592,VALID,338,VALID,0,
2008-05-20, 03:39:00,VALID,917.327,VALID,0,VALID,100,VALID,-0.0169808,VALID,18.4105,VALID,20,VALID,0,
2008-05-20, 03:40:00,VALID,917.32,VALID,0,VALID,100,VALID,-0.0169808,VALID,18.4789,VALID,24,VALID,0,
2008-05-20, 03:41:00,VALID,917.3,VALID,0,VALID,100,VALID,-0.0339617,VALID,18.5729,VALID,24,VALID,0,
2008-05-20, 03:42:00,VALID,917.292,VALID,0,VALID,100,VALID,-0.0169808,VALID,18.654,VALID,24,VALID,0,
2008-05-20, 03:43:00,VALID,917.308,VALID,0,VALID,100,VALID,-0.0339617,VALID,18.7159,VALID,24,VALID,0,
2008-05-20, 03:44:00,VALID,917.3,VALID,0,VALID,100,VALID,-0.0509425,VALID,18.7548,VALID,24,VALID,0,
2008-05-20, 03:45:00,VALID,917.306,VALID,0,VALID,100,VALID,-0.0509425,VALID,18.761,VALID,25,VALID,0,
2008-05-20, 03:46:00,VALID,917.292,VALID,0,VALID,100,VALID,-0.0509425,VALID,18.765,VALID,28,VALID,0,
2008-05-20, 03:47:00,VALID,917.274,VALID,0,VALID,100,VALID,-0.0849042,VALID,18.7485,VALID,28,VALID,0,